Regional Weather Roundup
Issued by NWS

Home | Current Version | Previous Version | Graphics & Text | Print | Product List | Glossary On
Versions: 1 2 3 4 5 6 7 8 9 10 11 12 13 14 15 16 17 18 19 20 21 22 23 24 25 26 27 28 29 30 31 32 33 34 35 36 37 38 39 40 41 42 43 44 45 46 47 48 49 50
453
ASUS45 KPSR 011410
RWRAZ

ARIZONA HOURLY REGIONAL WEATHER ROUNDUP
NATIONAL WEATHER SERVICE PHOENIX AZ
700 AM MST SUN MAY 01 2016

NOTE: FAIR INDICATES FEW OR NO CLOUDS BELOW 12,000 FEET WITH NO
SIGNIFICANT WEATHER AND/OR OBSTRUCTIONS TO VISIBILITY.

AZZ001>003-036-011500-
NORTHWEST ARIZONA

CITY           SKY/WX    TMP DP  RH WIND       PRES   REMARKS
BULLHEAD CITY  SUNNY     64  48  55 NE15      29.84R
KINGMAN        PTSUNNY   46  42  86 E5        29.88R
$$

AZZ004>008-015-016-018-011500-
NORTH CENTRAL ARIZONA

CITY           SKY/WX    TMP DP  RH WIND       PRES   REMARKS
GRAND CANYON   CLOUDY    41  34  76 NE8       29.92R
WILLIAMS       CLOUDY    36  36 100 NE5       29.99R WCI  32
PRESCOTT       CLOUDY    43  42  97 CALM      29.90R
FLAGSTAFF      SNOW      32  32 100 CALM      29.92R VSB 1/2
PAYSON         CLOUDY    45  37  76 CALM      29.93R
PAGE           CLOUDY    49  36  61 CALM      29.91R
$$

AZZ009>014-017-011500-
NORTHEAST ARIZONA

CITY           SKY/WX    TMP DP  RH WIND       PRES   REMARKS
WINSLOW        CLOUDY    43  40  89 E5        29.91R
SAINT JOHNS    SUNNY     41  38  89 NE3       29.91R
WINDOW ROCK    CLOUDY    36  33  89 S6        29.96R WCI  31
SHOW LOW       SUNNY     37  34  87 S8        29.93R WCI  31
$$

AZZ023-011500-
GREATER PHOENIX AREA

CITY           SKY/WX    TMP DP  RH WIND       PRES   REMARKS
PHOENIX        PTSUNNY   61  46  57 E12       29.81R
BUCKEYE        CLOUDY    54  50  87 NW7       29.84R
GLENDALE       PTSUNNY   59  52  77 CALM      29.84
LUKE AFB       MOSUNNY   57  48  71 N5        29.81R
DEER VALLEY    CLOUDY    59  43  55 NE6       29.82R
SCOTTSDALE     CLOUDY    59  48  67 CALM      29.84R
MESA-FALCON    PTSUNNY  N/A N/A N/A NE7       29.80R
MESA-GATEWAY   MOSUNNY   57  48  72 E8        29.84R
CHANDLER       PTSUNNY   61  50  67 E6        29.83R
$$

AZZ027-028-011500-
SOUTHWEST MARICOPA COUNTY AND PINAL COUNTY

CITY           SKY/WX    TMP DP  RH WIND       PRES   REMARKS
CASA GRANDE    MOSUNNY   59  45  58 SE6       29.85R
GILA BEND      FAIR      57  52  81 E3        29.81R
$$

AZZ503-504-507>509-011500-
SOUTHEAST ARIZONA

CITY           SKY/WX    TMP DP  RH WIND       PRES   REMARKS
TUCSON         SUNNY     57  37  47 SE9       29.89R
DAVIS-MONTHAN  SUNNY     56  36  46 SE7       29.87R
RYAN FIELD     SUNNY     55  27  33 E6        29.88R
NOGALES        SUNNY     51  39  63 CALM      29.90R
SIERRA VISTA   SUNNY     51  34  51 MISG      29.92R
DOUGLAS        SUNNY     53  34  48 VRB5      29.92R
SAFFORD        SUNNY     52  41  66 S6        29.87R
$$

AZZ020-021-025-026-031-011500-
SOUTHWEST ARIZONA

CITY           SKY/WX    TMP DP  RH WIND       PRES   REMARKS
YUMA           SUNNY     63  47  55 CALM      29.80R
$$

CAZ031-033-041-043-047-048-061-011500-
SOUTHERN CALIFORNIA

CITY           SKY/WX    TMP DP  RH WIND       PRES   REMARKS
DOWNTOWN L.A.  PTSUNNY   59  51  75 E3        29.89R
L.A. AIRPORT   MOSUNNY   57  51  80 E7        29.89R
SAN DIEGO      PTSUNNY   60  52  74 E5        29.91R
BURBANK        CLOUDY    56  50  80 SE5       29.88R
ONTARIO        MOSUNNY   53  47  79 CALM      29.90R
RIVERSIDE      SUNNY     54  48  80 CALM      29.90R
PALM SPRINGS   SUNNY     62  48  60 SW5       29.82R
EL CENTRO NAS  SUNNY    N/A N/A N/A CALM      29.82R
IMPERIAL       SUNNY     62  45  53 SW5       29.79R
BLYTHE         SUNNY     58  49  72 W5        29.82R
NEEDLES        SUNNY     64  49  57 NW9       29.83R
$$

NVZ020-UTZ003-011500-
SOUTHERN NEVADA-UTAH

CITY           SKY/WX    TMP DP  RH WIND       PRES   REMARKS
LAS VEGAS      MOSUNNY   56  47  71 S3        29.85R
SALT LAKE CITY PTSUNNY   49  23  36 E16G25    30.06R
$$

NMZ009-TXZ055-011500-
NEW MEXICO-WEST TEXAS

CITY           SKY/WX    TMP DP  RH WIND       PRES   REMARKS
ALBUQUERQUE    MOSUNNY   44  30  57 E30G38    30.01R
EL PASO        MOSUNNY   54  36  50 E10       29.98R
$$


........................KEY........................
SKY/WX - SKY CONDITION/WEATHER
TMP    - TEMPERATURE IN FAHRENHEIT
DP     - DEW POINT IN FAHRENHEIT
RH     - RELATIVE HUMIDITY IN PERCENT
WIND   - DIRECTION AND SPEED IN MILES PER HOUR (MPH)
VRB    - VARIABLE WIND DIRECTION
PRES   - MEAN SEA LEVEL PRESSURE IN INCHES OF MERCURY
         F - FALLING PRESSURE   R - RISING PRESSURE
         S - STEADY PRESSURE
VSB    - VISIBILITY IN MILES
HX     - HEAT INDEX IN FAHRENHEIT
WCI    - WIND CHILL INDEX IN FAHRENHEIT
TC     - TEMPERATURE IN CELSIUS WHICH IS ALSO KNOWN AS
         TEMPERATURE IN CENTIGRADE
AFB    - AIR FORCE BASE
         LUKE AFB IS LUKE AIR FORCE BASE
         DAVIS-MONTHAN IS DAVIS-MONTHAN AIR FORCE BASE
NAS    - NAVAL AIR STATION
         EL CENTRO NAS IS EL CENTRO NAVAL AIR STATION
N/A    - NOT AVAILABLE





USA.gov is the U.S. government's official web portal to all federal, state and local government web resources and services.